Wetterdaten: Woche 18.01.16 - 24.01.16 (KW3)
Datum Zeit Temperatur Luftfeuchte Luftdruck Niederschlag Windrichtung Sonnenschein Solar Wind
18.01.2016 00:00 -9,3 C 92 % 1024,7 hPa 0,0 l/m N 0,00 h 0 W/m 0,0 km/h (0 Bft)
18.01.2016 01:00 -10,2 C 91 % 1024,5 hPa 0,0 l/m N 0,00 h 0 W/m 0,0 km/h (0 Bft)
18.01.2016 02:00 -10,7 C 92 % 1024,4 hPa 0,0 l/m N 0,00 h 0 W/m 0,0 km/h (0 Bft)
18.01.2016 03:00 -10,7 C 92 % 1024,0 hPa 0,0 l/m N 0,00 h 0 W/m 0,0 km/h (0 Bft)
18.01.2016 04:00 -11,4 C 92 % 1023,4 hPa 0,0 l/m N 0,00 h 0 W/m 0,0 km/h (0 Bft)
18.01.2016 05:00 -12,2 C 91 % 1022,9 hPa 0,0 l/m W-NW 0,00 h 0 W/m 0,5 km/h (0 Bft)
18.01.2016 06:00 -12,8 C 91 % 1022,5 hPa 0,0 l/m N 0,00 h 0 W/m 0,8 km/h (0 Bft)
18.01.2016 07:00 -13,2 C 91 % 1022,3 hPa 0,0 l/m W-NW 0,00 h 0 W/m 4,0 km/h (1 Bft)
18.01.2016 08:00 -12,8 C 92 % 1022,3 hPa 0,0 l/m N 0,00 h 14 W/m 3,3 km/h (1 Bft)
18.01.2016 09:00 -11,3 C 94 % 1021,9 hPa 0,0 l/m W-NW 0,00 h 50 W/m 1,2 km/h (1 Bft)
18.01.2016 10:00 -7,9 C 95 % 1021,5 hPa 0,0 l/m NO 0,50 h 181 W/m 8,6 km/h (2 Bft)
18.01.2016 11:00 -6,3 C 92 % 1020,8 hPa 0,0 l/m O-NO 0,67 h 237 W/m 13,3 km/h (3 Bft)
18.01.2016 12:00 -5,5 C 88 % 1019,5 hPa 0,0 l/m O-NO 0,92 h 355 W/m 11,6 km/h (2 Bft)
18.01.2016 13:00 -4,5 C 85 % 1018,2 hPa 0,0 l/m O-NO 0,92 h 334 W/m 11,8 km/h (2 Bft)
18.01.2016 14:00 -3,8 C 81 % 1017,4 hPa 0,0 l/m O-NO 1,00 h 281 W/m 13,3 km/h (3 Bft)
18.01.2016 15:00 -3,9 C 81 % 1017,6 hPa 0,0 l/m O 0,58 h 120 W/m 8,3 km/h (2 Bft)
18.01.2016 16:00 -5,0 C 83 % 1017,8 hPa 0,0 l/m O 0,00 h 18 W/m 1,5 km/h (1 Bft)
18.01.2016 17:00 -6,4 C 85 % 1017,9 hPa 0,0 l/m N 0,00 h 0 W/m 0,0 km/h (0 Bft)
18.01.2016 18:00 -8,0 C 86 % 1017,9 hPa 0,0 l/m N 0,00 h 0 W/m 0,0 km/h (0 Bft)
18.01.2016 19:00 -9,2 C 89 % 1017,8 hPa 0,0 l/m O-NO 0,00 h 0 W/m 3,1 km/h (1 Bft)
18.01.2016 20:00 -9,2 C 92 % 1017,5 hPa 0,0 l/m N 0,00 h 0 W/m 0,8 km/h (0 Bft)
18.01.2016 21:00 -8,8 C 93 % 1017,3 hPa 0,0 l/m N 0,00 h 0 W/m 0,4 km/h (0 Bft)
18.01.2016 22:00 -8,9 C 94 % 1017,1 hPa 0,0 l/m O-NO 0,00 h 0 W/m 1,1 km/h (0 Bft)
18.01.2016 23:00 -9,3 C 94 % 1017,2 hPa 0,0 l/m N 0,00 h 0 W/m 1,1 km/h (0 Bft)
19.01.2016 00:00 -9,1 C 95 % 1016,9 hPa 0,0 l/m N 0,00 h 0 W/m 0,4 km/h (0 Bft)
19.01.2016 01:00 -8,5 C 95 % 1016,5 hPa 0,0 l/m O-NO 0,00 h 0 W/m 2,4 km/h (1 Bft)
19.01.2016 02:00 -8,3 C 94 % 1016,5 hPa 0,0 l/m O-NO 0,00 h 0 W/m 1,7 km/h (1 Bft)
19.01.2016 03:00 -8,2 C 94 % 1015,9 hPa 0,0 l/m N 0,00 h 0 W/m 0,5 km/h (0 Bft)
19.01.2016 04:00 -8,1 C 94 % 1016,0 hPa 0,0 l/m N 0,00 h 0 W/m 0,1 km/h (0 Bft)
19.01.2016 05:00 -7,9 C 94 % 1015,7 hPa 0,0 l/m N 0,00 h 0 W/m 0,0 km/h (0 Bft)
19.01.2016 06:00 -7,7 C 94 % 1015,8 hPa 0,0 l/m O-NO 0,00 h 0 W/m 0,7 km/h (0 Bft)
19.01.2016 07:00 -7,6 C 94 % 1016,0 hPa 0,0 l/m O-NO 0,00 h 0 W/m 1,1 km/h (0 Bft)
19.01.2016 08:00 -7,5 C 94 % 1016,5 hPa 0,0 l/m N 0,00 h 13 W/m 0,4 km/h (0 Bft)
19.01.2016 09:00 -7,0 C 94 % 1016,7 hPa 0,0 l/m O-NO 0,00 h 42 W/m 1,9 km/h (1 Bft)
19.01.2016 10:00 -6,2 C 94 % 1016,7 hPa 0,0 l/m O-NO 0,00 h 60 W/m 4,0 km/h (1 Bft)
19.01.2016 11:00 -5,1 C 92 % 1016,8 hPa 0,0 l/m O-NO 0,00 h 92 W/m 2,4 km/h (1 Bft)
19.01.2016 12:00 -4,0 C 90 % 1016,7 hPa 0,0 l/m O 0,00 h 76 W/m 4,0 km/h (1 Bft)
19.01.2016 13:00 -3,5 C 90 % 1016,3 hPa 0,0 l/m SO 0,00 h 53 W/m 4,3 km/h (1 Bft)
19.01.2016 14:00 -3,2 C 90 % 1015,9 hPa 0,0 l/m N 0,00 h 40 W/m 2,1 km/h (1 Bft)
19.01.2016 15:00 -2,9 C 90 % 1015,7 hPa 0,0 l/m SO 0,00 h 33 W/m 3,9 km/h (1 Bft)
19.01.2016 16:00 -2,7 C 90 % 1015,9 hPa 0,0 l/m S-SO 0,00 h 11 W/m 4,1 km/h (1 Bft)
19.01.2016 17:00 -2,7 C 91 % 1016,2 hPa 0,0 l/m S 0,00 h 0 W/m 5,6 km/h (1 Bft)
19.01.2016 18:00 -2,7 C 92 % 1016,5 hPa 0,0 l/m S 0,00 h 0 W/m 5,2 km/h (1 Bft)
19.01.2016 19:00 -2,7 C 93 % 1016,3 hPa 0,0 l/m N 0,00 h 0 W/m 1,9 km/h (1 Bft)
19.01.2016 20:00 -2,6 C 94 % 1016,2 hPa 0,0 l/m N 0,00 h 0 W/m 0,0 km/h (0 Bft)
19.01.2016 21:00 -2,5 C 94 % 1016,4 hPa 0,0 l/m N 0,00 h 0 W/m 0,0 km/h (0 Bft)
19.01.2016 22:00 -2,5 C 94 % 1016,4 hPa 0,0 l/m N 0,00 h 0 W/m 0,0 km/h (0 Bft)
19.01.2016 23:00 -2,4 C 95 % 1016,5 hPa 0,0 l/m N 0,00 h 0 W/m 0,0 km/h (0 Bft)
20.01.2016 00:00 -2,4 C 95 % 1016,4 hPa 0,0 l/m N 0,00 h 0 W/m 0,0 km/h (0 Bft)
20.01.2016 01:00 -2,3 C 96 % 1016,3 hPa 0,0 l/m N 0,00 h 0 W/m 0,0 km/h (0 Bft)
20.01.2016 02:00 -2,3 C 96 % 1016,5 hPa 0,0 l/m N 0,00 h 0 W/m 0,0 km/h (0 Bft)
20.01.2016 03:00 -2,4 C 96 % 1016,8 hPa 0,0 l/m N 0,00 h 0 W/m 0,0 km/h (0 Bft)
20.01.2016 04:00 -2,3 C 96 % 1016,9 hPa 0,0 l/m N 0,00 h 0 W/m 0,0 km/h (0 Bft)
20.01.2016 05:00 -2,3 C 97 % 1017,2 hPa 0,0 l/m N 0,00 h 0 W/m 0,0 km/h (0 Bft)
20.01.2016 06:00 -2,3 C 97 % 1017,2 hPa 0,0 l/m N 0,00 h 0 W/m 0,0 km/h (0 Bft)
20.01.2016 07:00 -2,8 C 96 % 1017,5 hPa 0,0 l/m N 0,00 h 0 W/m 0,3 km/h (0 Bft)
20.01.2016 08:00 -3,8 C 96 % 1018,4 hPa 0,0 l/m S 0,00 h 17 W/m 1,7 km/h (1 Bft)
20.01.2016 09:00 -3,4 C 97 % 1018,8 hPa 0,0 l/m S 0,00 h 45 W/m 1,7 km/h (1 Bft)
20.01.2016 10:00 -3,3 C 96 % 1019,1 hPa 0,0 l/m S 0,00 h 75 W/m 2,7 km/h (1 Bft)
20.01.2016 11:00 -3,2 C 96 % 1019,3 hPa 0,0 l/m N 0,00 h 110 W/m 3,1 km/h (1 Bft)
20.01.2016 12:00 -3,0 C 96 % 1019,2 hPa 0,2 l/m S 0,00 h 130 W/m 4,3 km/h (1 Bft)
20.01.2016 13:00 -3,2 C 96 % 1018,8 hPa 0,0 l/m S 0,00 h 135 W/m 3,1 km/h (1 Bft)
20.01.2016 14:00 -2,9 C 96 % 1018,5 hPa 0,0 l/m N 0,08 h 141 W/m 0,0 km/h (0 Bft)
20.01.2016 15:00 -2,9 C 96 % 1018,5 hPa 0,0 l/m S 0,00 h 83 W/m 1,5 km/h (1 Bft)
20.01.2016 16:00 -3,8 C 96 % 1018,8 hPa 0,0 l/m S 0,00 h 18 W/m 1,2 km/h (1 Bft)
20.01.2016 17:00 -4,4 C 97 % 1019,2 hPa 0,0 l/m N 0,00 h 0 W/m 2,0 km/h (1 Bft)
20.01.2016 18:00 -5,5 C 96 % 1019,5 hPa 0,0 l/m N 0,00 h 0 W/m 0,0 km/h (0 Bft)
20.01.2016 19:00 -6,8 C 96 % 1019,8 hPa 0,0 l/m N 0,00 h 0 W/m 0,0 km/h (0 Bft)
20.01.2016 20:00 -8,0 C 96 % 1020,4 hPa 0,0 l/m N 0,00 h 0 W/m 0,0 km/h (0 Bft)
20.01.2016 21:00 -9,3 C 95 % 1020,9 hPa 0,0 l/m N 0,00 h 0 W/m 0,0 km/h (0 Bft)
20.01.2016 22:00 -10,2 C 94 % 1021,3 hPa 0,0 l/m N 0,00 h 0 W/m 0,0 km/h (0 Bft)
20.01.2016 23:00 -10,7 C 94 % 1021,9 hPa 0,0 l/m N 0,00 h 0 W/m 0,0 km/h (0 Bft)
21.01.2016 00:00 -10,9 C 94 % 1022,4 hPa 0,0 l/m N 0,00 h 0 W/m 0,0 km/h (0 Bft)
21.01.2016 01:00 -11,2 C 94 % 1023,0 hPa 0,0 l/m N 0,00 h 0 W/m 0,0 km/h (0 Bft)
21.01.2016 02:00 -10,6 C 94 % 1023,3 hPa 0,0 l/m N 0,00 h 0 W/m 0,0 km/h (0 Bft)
21.01.2016 03:00 -10,7 C 94 % 1023,7 hPa 0,0 l/m N 0,00 h 0 W/m 0,0 km/h (0 Bft)
21.01.2016 04:00 -10,8 C 94 % 1024,1 hPa 0,0 l/m N 0,00 h 0 W/m 0,0 km/h (0 Bft)
21.01.2016 05:00 -10,8 C 94 % 1024,5 hPa 0,0 l/m N 0,00 h 0 W/m 0,0 km/h (0 Bft)
21.01.2016 06:00 -10,9 C 93 % 1025,0 hPa 0,0 l/m N 0,00 h 0 W/m 0,0 km/h (0 Bft)
21.01.2016 07:00 -10,8 C 93 % 1025,5 hPa 0,0 l/m N 0,00 h 0 W/m 0,0 km/h (0 Bft)
21.01.2016 08:00 -10,5 C 94 % 1026,2 hPa 0,0 l/m N 0,00 h 15 W/m 0,0 km/h (0 Bft)
21.01.2016 09:00 -9,2 C 95 % 1026,6 hPa 0,0 l/m S-SW 0,25 h 58 W/m 0,0 km/h (0 Bft)
21.01.2016 10:00 -6,2 C 97 % 1027,0 hPa 0,0 l/m S-SW 1,00 h 245 W/m 1,9 km/h (1 Bft)
21.01.2016 11:00 -3,6 C 97 % 1027,2 hPa 0,0 l/m S-SO 0,92 h 281 W/m 4,3 km/h (1 Bft)
21.01.2016 12:00 -1,1 C 91 % 1027,1 hPa 0,0 l/m NO 0,75 h 300 W/m 12,9 km/h (3 Bft)
21.01.2016 13:00 -1,0 C 88 % 1027,0 hPa 0,0 l/m O-NO 0,33 h 216 W/m 12,6 km/h (3 Bft)
21.01.2016 14:00 -0,3 C 84 % 1026,8 hPa 0,0 l/m O 0,92 h 283 W/m 14,1 km/h (3 Bft)
21.01.2016 15:00 -0,4 C 82 % 1026,8 hPa 0,0 l/m O 0,92 h 153 W/m 12,8 km/h (3 Bft)
21.01.2016 16:00 -1,0 C 83 % 1027,3 hPa 0,0 l/m O-NO 0,25 h 35 W/m 8,6 km/h (2 Bft)
21.01.2016 17:00 -1,9 C 85 % 1027,7 hPa 0,0 l/m O-NO 0,00 h 5 W/m 4,8 km/h (1 Bft)
21.01.2016 18:00 -3,0 C 86 % 1028,0 hPa 0,0 l/m O-NO 0,00 h 0 W/m 0,8 km/h (0 Bft)
21.01.2016 19:00 -4,2 C 88 % 1028,2 hPa 0,0 l/m O-NO 0,00 h 0 W/m 4,0 km/h (1 Bft)
21.01.2016 20:00 -5,2 C 90 % 1028,8 hPa 0,0 l/m O-NO 0,00 h 0 W/m 4,4 km/h (1 Bft)
21.01.2016 21:00 -6,0 C 92 % 1029,2 hPa 0,0 l/m O-NO 0,00 h 0 W/m 3,3 km/h (1 Bft)
21.01.2016 22:00 -6,4 C 93 % 1029,3 hPa 0,0 l/m O-NO 0,00 h 0 W/m 1,2 km/h (1 Bft)
21.01.2016 23:00 -7,0 C 93 % 1029,4 hPa 0,0 l/m N 0,00 h 0 W/m 0,0 km/h (0 Bft)
22.01.2016 00:00 -7,0 C 94 % 1029,5 hPa 0,0 l/m O-NO 0,00 h 0 W/m 1,1 km/h (0 Bft)
22.01.2016 01:00 -5,5 C 96 % 1029,4 hPa 0,0 l/m O-NO 0,00 h 0 W/m 2,4 km/h (1 Bft)
22.01.2016 02:00 -5,1 C 96 % 1029,6 hPa 0,0 l/m O-NO 0,00 h 0 W/m 3,7 km/h (1 Bft)
22.01.2016 03:00 -5,0 C 96 % 1029,3 hPa 0,0 l/m N 0,00 h 0 W/m 2,4 km/h (1 Bft)
22.01.2016 04:00 -4,9 C 96 % 1029,6 hPa 0,0 l/m N 0,00 h 0 W/m 0,0 km/h (0 Bft)
22.01.2016 05:00 -4,8 C 96 % 1029,8 hPa 0,0 l/m N 0,00 h 0 W/m 0,0 km/h (0 Bft)
22.01.2016 06:00 -4,7 C 96 % 1030,0 hPa 0,0 l/m N 0,00 h 0 W/m 0,9 km/h (0 Bft)
22.01.2016 07:00 -4,7 C 96 % 1030,1 hPa 0,0 l/m O 0,00 h 0 W/m 2,7 km/h (1 Bft)
22.01.2016 08:00 -4,4 C 96 % 1030,2 hPa 0,0 l/m SO 0,00 h 10 W/m 3,3 km/h (1 Bft)
22.01.2016 09:00 -4,0 C 96 % 1030,5 hPa 0,0 l/m S 0,00 h 30 W/m 3,7 km/h (1 Bft)
22.01.2016 10:00 -3,5 C 96 % 1030,5 hPa 0,0 l/m S 0,00 h 60 W/m 3,9 km/h (1 Bft)
22.01.2016 11:00 -2,8 C 94 % 1030,3 hPa 0,0 l/m S-SW 0,00 h 95 W/m 7,9 km/h (2 Bft)
22.01.2016 12:00 -2,2 C 91 % 1029,9 hPa 0,0 l/m SW 0,00 h 111 W/m 8,3 km/h (2 Bft)
22.01.2016 13:00 -1,8 C 90 % 1029,6 hPa 0,0 l/m SW 0,00 h 137 W/m 8,6 km/h (2 Bft)
22.01.2016 14:00 -1,3 C 88 % 1029,2 hPa 0,0 l/m SW 0,83 h 233 W/m 5,9 km/h (2 Bft)
22.01.2016 15:00 -1,2 C 87 % 1029,2 hPa 0,0 l/m SW 1,00 h 141 W/m 6,0 km/h (2 Bft)
22.01.2016 16:00 -1,9 C 88 % 1029,4 hPa 0,0 l/m N 0,08 h 31 W/m 0,7 km/h (0 Bft)
22.01.2016 17:00 -2,8 C 88 % 1029,5 hPa 0,0 l/m N 0,00 h 0 W/m 0,0 km/h (0 Bft)
22.01.2016 18:00 -4,3 C 89 % 1029,7 hPa 0,0 l/m N 0,00 h 0 W/m 0,0 km/h (0 Bft)
22.01.2016 19:00 -5,4 C 90 % 1029,8 hPa 0,0 l/m N 0,00 h 0 W/m 0,0 km/h (0 Bft)
22.01.2016 20:00 -6,1 C 92 % 1029,7 hPa 0,0 l/m N 0,00 h 0 W/m 0,0 km/h (0 Bft)
22.01.2016 21:00 -6,4 C 93 % 1029,5 hPa 0,0 l/m SW 0,00 h 0 W/m 0,8 km/h (0 Bft)
22.01.2016 22:00 -5,6 C 95 % 1029,7 hPa 0,0 l/m N 0,00 h 0 W/m 1,5 km/h (1 Bft)
22.01.2016 23:00 -4,8 C 96 % 1029,6 hPa 0,0 l/m SW 0,00 h 0 W/m 0,7 km/h (0 Bft)
23.01.2016 00:00 -4,3 C 96 % 1029,6 hPa 0,0 l/m SW 0,00 h 0 W/m 0,8 km/h (0 Bft)
23.01.2016 01:00 -3,3 C 96 % 1029,6 hPa 0,0 l/m S-SW 0,00 h 0 W/m 4,3 km/h (1 Bft)
23.01.2016 02:00 -2,0 C 96 % 1029,5 hPa 0,2 l/m S-SW 0,00 h 0 W/m 6,3 km/h (2 Bft)
23.01.2016 03:00 -0,9 C 96 % 1029,5 hPa 0,4 l/m SW 0,00 h 0 W/m 15,1 km/h (3 Bft)
23.01.2016 04:00 -0,5 C 97 % 1029,3 hPa 0,4 l/m SW 0,00 h 0 W/m 12,6 km/h (3 Bft)
23.01.2016 05:00 0,2 C 98 % 1030,0 hPa 0,2 l/m SW 0,00 h 0 W/m 9,3 km/h (2 Bft)
23.01.2016 06:00 0,3 C 98 % 1031,2 hPa 0,0 l/m SW 0,00 h 0 W/m 9,5 km/h (2 Bft)
23.01.2016 07:00 0,5 C 98 % 1032,7 hPa 0,0 l/m SW 0,00 h 0 W/m 12,2 km/h (2 Bft)
23.01.2016 08:00 0,9 C 98 % 1033,8 hPa 0,0 l/m SW 0,00 h 14 W/m 13,0 km/h (3 Bft)
23.01.2016 09:00 1,3 C 99 % 1034,8 hPa 0,0 l/m SW 0,08 h 58 W/m 15,4 km/h (3 Bft)
23.01.2016 10:00 2,5 C 98 % 1035,8 hPa 0,0 l/m W-SW 0,17 h 147 W/m 15,3 km/h (3 Bft)
23.01.2016 11:00 3,1 C 97 % 1036,2 hPa 0,0 l/m SW 0,00 h 123 W/m 17,4 km/h (3 Bft)
23.01.2016 12:00 4,0 C 94 % 1036,1 hPa 0,0 l/m W-SW 0,08 h 185 W/m 19,2 km/h (3 Bft)
23.01.2016 13:00 5,0 C 90 % 1035,6 hPa 0,0 l/m W-SW 0,83 h 394 W/m 17,6 km/h (3 Bft)
23.01.2016 14:00 4,7 C 91 % 1035,5 hPa 0,0 l/m SW 0,25 h 156 W/m 13,3 km/h (3 Bft)
23.01.2016 15:00 4,7 C 91 % 1035,9 hPa 0,0 l/m W-SW 0,42 h 144 W/m 5,6 km/h (1 Bft)
23.01.2016 16:00 4,1 C 92 % 1036,3 hPa 0,0 l/m W-SW 0,00 h 20 W/m 5,1 km/h (1 Bft)
23.01.2016 17:00 3,3 C 95 % 1036,7 hPa 0,0 l/m W-SW 0,00 h 0 W/m 2,7 km/h (1 Bft)
23.01.2016 18:00 2,4 C 95 % 1037,5 hPa 0,0 l/m N 0,00 h 0 W/m 0,0 km/h (0 Bft)
23.01.2016 19:00 1,1 C 94 % 1037,8 hPa 0,0 l/m W-SW 0,00 h 0 W/m 0,0 km/h (0 Bft)
23.01.2016 20:00 0,1 C 95 % 1037,9 hPa 0,0 l/m N 0,00 h 0 W/m 0,8 km/h (0 Bft)
23.01.2016 21:00 -0,3 C 96 % 1037,7 hPa 0,0 l/m N 0,00 h 0 W/m 0,0 km/h (0 Bft)
23.01.2016 22:00 -0,8 C 97 % 1037,2 hPa 0,0 l/m N 0,00 h 0 W/m 0,0 km/h (0 Bft)
23.01.2016 23:00 -0,9 C 97 % 1036,9 hPa 0,0 l/m N 0,00 h 0 W/m 0,0 km/h (0 Bft)
24.01.2016 00:00 -1,3 C 98 % 1036,5 hPa 0,0 l/m W-SW 0,00 h 0 W/m 0,7 km/h (0 Bft)
24.01.2016 01:00 -1,9 C 98 % 1036,2 hPa 0,0 l/m W-SW 0,00 h 0 W/m 4,0 km/h (1 Bft)
24.01.2016 02:00 -2,4 C 98 % 1035,8 hPa 0,0 l/m N 0,00 h 0 W/m 0,7 km/h (0 Bft)
24.01.2016 03:00 -2,8 C 98 % 1035,5 hPa 0,0 l/m W-SW 0,00 h 0 W/m 0,5 km/h (0 Bft)
24.01.2016 04:00 -3,2 C 98 % 1035,5 hPa 0,0 l/m W-SW 0,00 h 0 W/m 3,6 km/h (1 Bft)
24.01.2016 05:00 -3,7 C 98 % 1035,2 hPa 0,0 l/m N 0,00 h 0 W/m 0,0 km/h (0 Bft)
24.01.2016 06:00 -3,9 C 98 % 1035,3 hPa 0,0 l/m N 0,00 h 0 W/m 0,0 km/h (0 Bft)
24.01.2016 07:00 -4,1 C 98 % 1035,0 hPa 0,0 l/m N 0,00 h 5 W/m 0,1 km/h (0 Bft)
24.01.2016 08:00 -4,0 C 98 % 1035,3 hPa 0,0 l/m N 0,00 h 18 W/m 0,0 km/h (0 Bft)
24.01.2016 09:00 -2,9 C 99 % 1035,7 hPa 0,0 l/m N 0,00 h 47 W/m 0,5 km/h (0 Bft)
24.01.2016 10:00 -1,3 C 99 % 1035,8 hPa 0,2 l/m S-SW 0,00 h 73 W/m 9,0 km/h (2 Bft)
24.01.2016 11:00 -0,7 C 99 % 1035,6 hPa 0,0 l/m S-SW 0,00 h 74 W/m 11,2 km/h (2 Bft)
24.01.2016 12:00 0,0 C 99 % 1035,3 hPa 0,0 l/m S-SW 0,00 h 101 W/m 9,3 km/h (2 Bft)
24.01.2016 13:00 0,5 C 99 % 1034,7 hPa 0,0 l/m S-SW 0,00 h 99 W/m 10,1 km/h (2 Bft)
24.01.2016 14:00 1,0 C 100 % 1034,2 hPa 0,0 l/m S-SW 0,00 h 76 W/m 10,8 km/h (2 Bft)
24.01.2016 15:00 1,3 C 99 % 1034,4 hPa 0,0 l/m S-SW 0,08 h 85 W/m 10,9 km/h (2 Bft)
24.01.2016 16:00 1,6 C 99 % 1034,3 hPa 0,0 l/m S-SW 0,33 h 40 W/m 10,2 km/h (2 Bft)
24.01.2016 17:00 1,3 C 98 % 1034,6 hPa 0,0 l/m S-SW 0,00 h 5 W/m 7,4 km/h (2 Bft)
24.01.2016 18:00 1,3 C 98 % 1034,6 hPa 0,0 l/m S-SW 0,00 h 0 W/m 8,0 km/h (2 Bft)
24.01.2016 19:00 1,5 C 97 % 1034,4 hPa 0,0 l/m S-SW 0,00 h 0 W/m 7,4 km/h (2 Bft)
24.01.2016 20:00 1,5 C 96 % 1034,4 hPa 0,0 l/m N 0,00 h 0 W/m 0,0 km/h (0 Bft)
24.01.2016 21:00 1,3 C 96 % 1034,3 hPa 0,0 l/m S-SW 0,00 h 0 W/m 0,9 km/h (0 Bft)
24.01.2016 22:00 1,0 C 96 % 1033,8 hPa 0,0 l/m S-SW 0,00 h 0 W/m 3,5 km/h (1 Bft)
24.01.2016 23:00 1,0 C 97 % 1033,8 hPa 0,0 l/m S-SW 0,00 h 0 W/m 2,4 km/h (1 Bft)
Min-Datum _ 18.01.16 18.01.16 19.01.16 - - - - 18.01.16
_ Min-Zeit 07:10 15:10 05:40 - - - - 00:00
Minimum _ -13,2 C 80 % 1015,6 hPa - - - - 0,0 km/h (0 Bft)
Max-Datum _ 23.01.16 21.01.16 23.01.16 23.01.16 - 18.01.16 23.01.16 23.01.16
_ Max-Zeit 14:05 09:55 20:10 03:30 - 10:25 13:10 11:55
Maximum _ 5,5 C 100 % 1038,2 hPa 0,4 l/m - 0,08 h 503 W/m 24,1 km/h
W-SW (4 Bft)
Durchschnitt _ -4,1 C 94 % 1025,8 hPa #1,6 l/m S-SW #14:10 h 107 W/m 3,6 km/h (1 Bft)